FENGYUN 1C DEB, 30465

Orbit data source: Space-Track

FENGYUN 1C DEB, 30465 is space debris in SSO originally from a launch on Mon, 10 May 1999 UTC launched from the Taiyaun Space Center, China (TSC). Fengyun 1C debris stems from the Chinese weather satellite Fengyun-1C, which was intentionally destroyed by a Chinese anti-satellite missile in 2007. This event dramatically increased the amount of space debris, with thousands of trackable fragments posing hazards to satellites and human spaceflight. The Fengyun 1C debris cloud has become a focal point in discussions about space sustainability and the need for international regulations to prevent the creation of new debris.

Loading next visibility...
Identifier
30465, 1999-025AGC
Orbit
SSO
Country
Flag of CNCN / PRC
Related business
Manufacturer
Unknown
Mission
Spacecraft
Bus & Motor
Unknown
Mass
Unknown
Launch date (UTC)
1999-05-10 (27 years ago)
Launch vehicle
Unknown
Launch site
Taiyaun Space Center, China (TSC)
Object type
Payload
Rocket body
Debris
Shape & HBR
Unknown shape, 0.1 m
Radar Cross Section
Small (<0.1 m²)

Expand to show TLE details & history
Last TLE update: 13 hours ago

TLE from 13 hours ago
0 FENGYUN 1C DEB
1 30465U 99025AGC 26037.77187069  .00006672  00000-0  23712-2 0  9994
2 30465  98.8237 132.1611 0018802 219.8722 267.2031 14.34594937981617
Epoch: 2026-02-06T18:31Z
TLE epoch observation values (Epoch: 2026-02-06T18:31:29.627Z)
Latitude
52.3462°
Longitude
-91.07384°
Altitude
785.564 km
Speed
7.466 km/s
True Right ascension
21h 34m 49s
True Declination
52° 10' 49"
Sunlit
Object was in daylight at epoch
Visualization orbit readout
Latitude
Unknown
Longitude
Unknown
Altitude
Unknown
Speed
Unknown
Apparent Right ascension
Unknown
Apparent Declination
Unknown
Sunlit
N/A
Visualization observer readout
Local Sidereal Time
10:03:57
Azimuth
Unknown
Elevation
Unknown
Doppler factor
Unknown
Orbital elements
Apogee altitude
787.004 km
Perigee altitude
760.111 km
Semi-major axis
7,151.694 km
Eccentricity
0.00188
Inclination
98.8237°
RAAN
132.1611°
Arg. of periapsis
219.8722°
True anomaly
266.98793°
Mean anomaly
267.2031°
Eccentric anomaly
267.09551°
Mean motion
3.58864 °/min
Orbital period
100.32 mins
BSTAR
0.0023712
Loading maneuver chart data...
Computing Atmospheric mass density...

Documentation

Showing up to 5 results
|